Clarksburg, WV

5:40 PM EST on December 06, 2019 (GMT -0500)
Benedum

Weather History for KCKB - October, 2019

Change the Weather History Date:

Sunday, October 13, 2019

  Actual Average Record
Temperature  
Mean Temperature 51 °F -  
Max Temperature 69 °F 67 °F 87 °F (1928)
Min Temperature 33 °F 43 °F 24 °F (1988)
Degree Days  
Heating Degree Days 14    
Month to date heating degree days 32  
Moisture  
Dew Point 33 °F    
Average Humidity 56    
Maximum Humidity 92    
Minimum Humidity 19    
Precipitation  
Precipitation 0.00 in - - ()
Month to date precipitation 0.84  
Year to date precipitation 32.91  
Sea Level Pressure  
Sea Level Pressure 30.05 in    
Wind  
Wind Speed 2 mph (SW)    
Max Wind Speed 13 mph    
Max Gust Speed 15 mph    
Visibility 6 miles    
Events Fog    
Averages and records for this station are not official NWS values.
T = Trace of Precipitation, MM = Missing Value Source: NWS Daily Summary

Daily Weather History Graph

Daily Weather History Graph

Search for Another Location

Airport or City:

Astronomy

Oct. 13, 2019 Rise Set
Actual Time 7:28 AM EDT 6:45 PM EDT
Civil Twilight 7:01 AM EDT 7:12 PM EDT
Nautical Twilight 6:30 AM EDT 7:43 PM EDT
Astronomical Twilight 5:59 AM EDT 8:14 PM EDT
Moon 7:06 PM EDT (10/13) 7:01 AM EDT (10/13)
Length of Visible Light 12h 10m
Length of Day
11h 16m
Full, 100% of the Moon is Illuminated
Oct 13
Full
Oct 13
Full
Oct 21
Last Quarter
Oct 27
New
Nov 4
First Quarter

Hourly Weather History & Observations

Time (EDT) Temp. Dew Point Humidity Pressure Visibility Wind Dir Wind Speed Gust Speed Precip Events Conditions
12:53 AM 42.1 °F 37.0 °F 82% 30.12 in 10.0 mi Calm Calm - N/A   Clear
1:53 AM 41.0 °F 37.0 °F 86% 30.10 in 10.0 mi Calm Calm - N/A   Clear
2:53 AM 41.0 °F 36.0 °F 82% 30.10 in 9.0 mi Calm Calm - N/A   Clear
3:20 AM 39.0 °F 36.0 °F 89% 30.10 in 1.0 mi Calm Calm - N/A   Clear
3:26 AM 39.0 °F 35.1 °F 86% 30.10 in 5.0 mi Calm Calm - N/A   Clear
3:43 AM 37.9 °F 34.0 °F 86% 30.09 in 1.8 mi Calm Calm - N/A   Clear
3:53 AM 37.9 °F 34.0 °F 86% 30.09 in 6.0 mi Calm Calm - N/A   Clear
4:32 AM 37.0 °F 34.0 °F 89% 30.09 in 1.5 mi Calm Calm - N/A   Partly Cloudy
4:35 AM 37.0 °F 34.0 °F 89% 30.09 in 0.8 mi Calm Calm - N/A   Mist
4:50 AM 37.4 °F 33.8 °F 87% 30.09 in 9.0 mi Calm Calm - N/A   Mostly Cloudy
4:53 AM 36.0 °F 33.1 °F 89% 30.08 in 4.0 mi Calm Calm - N/A   Mostly Cloudy
4:58 AM 36.0 °F 33.1 °F 89% 30.09 in 1.8 mi Calm Calm - N/A   Mostly Cloudy
5:09 AM 34.0 °F 30.9 °F 89% 30.09 in 0.5 mi Calm Calm - N/A Fog Fog
5:53 AM 35.1 °F 32.0 °F 89% 30.09 in 0.2 mi Calm Calm - N/A Fog Fog
6:13 AM 34.0 °F 30.9 °F 89% 30.09 in 0.2 mi Calm Calm - N/A Fog Fog
6:49 AM 33.8 °F 30.2 °F 87% 30.09 in 1.0 mi Calm Calm - N/A   Mist
6:53 AM 33.1 °F 30.0 °F 89% 30.09 in 0.8 mi Calm Calm - N/A   Mist
7:04 AM 34.0 °F 30.9 °F 89% 30.09 in 1.2 mi Calm Calm - N/A   Scattered Clouds
7:08 AM 33.1 °F 30.9 °F 92% 30.09 in 3.0 mi Calm Calm - N/A   Partly Cloudy
7:18 AM 34.0 °F 30.0 °F 85% 30.08 in 1.8 mi Calm Calm - N/A   Partly Cloudy
7:31 AM 33.1 °F 30.0 °F 89% 30.08 in 1.0 mi Calm Calm - N/A   Mist
7:44 AM 33.1 °F 30.0 °F 89% 30.08 in 0.5 mi Calm Calm - N/A Fog Fog
7:53 AM 34.0 °F 30.0 °F 85% 30.08 in 1.5 mi Calm Calm - N/A   Partly Cloudy
7:56 AM 34.0 °F 30.9 °F 89% 30.07 in 10.0 mi Calm Calm - N/A   Partly Cloudy
8:53 AM 36.0 °F 32.0 °F 86% 30.08 in 10.0 mi Calm Calm - N/A   Clear
8:56 AM 36.0 °F 33.1 °F 89% 30.08 in 1.8 mi Calm Calm - N/A   Clear
9:19 AM 37.9 °F 35.1 °F 89% 30.07 in 3.0 mi Calm Calm - N/A   Clear
9:53 AM 41.0 °F 37.0 °F 86% 30.07 in 9.0 mi Calm Calm - N/A   Clear
10:53 AM 45.0 °F 39.0 °F 80% 30.07 in 10.0 mi Calm Calm - N/A   Clear
11:53 AM 50.0 °F 39.0 °F 66% 30.06 in 10.0 mi Calm Calm - N/A   Clear
12:53 PM 55.0 °F 37.0 °F 51% 30.03 in 10.0 mi Calm Calm - N/A   Clear
1:53 PM 61.0 °F 35.1 °F 38% 30.00 in 10.0 mi Calm Calm - N/A   Clear
2:53 PM 64.9 °F 35.1 °F 33% 29.96 in 10.0 mi SW 5.8 mph - N/A   Clear
3:53 PM 66.9 °F 34.0 °F 30% 29.96 in 10.0 mi West 6.9 mph - N/A   Clear
4:53 PM 68.0 °F 24.1 °F 19% 29.95 in 10.0 mi SW 10.4 mph - N/A   Clear
5:53 PM 64.9 °F 25.0 °F 22% 29.96 in 10.0 mi SW 6.9 mph - N/A   Clear
6:53 PM 63.0 °F 27.0 °F 26% 29.96 in 9.0 mi SSW 3.5 mph - N/A   Clear
7:53 PM 53.1 °F 34.0 °F 48% 29.97 in 10.0 mi SSE 3.5 mph - N/A   Clear
8:53 PM 53.1 °F 34.0 °F 48% 29.96 in 10.0 mi Calm Calm - N/A   Clear
9:53 PM 46.9 °F 36.0 °F 66% 29.98 in 10.0 mi Calm Calm - N/A   Clear
10:53 PM 45.0 °F 35.1 °F 68% 29.98 in 10.0 mi Calm Calm - N/A   Clear
11:53 PM 42.1 °F 37.0 °F 82% 29.99 in 10.0 mi Calm Calm - N/A   Clear